SQ7PKP-15 Weather Reports


Display with metric or nautical units.
time (UTC)temp
F
wind
direction
speed
MPH
gust
MPH
rain 1hr
in
rain 24hr
in
rain mn
in
humidity
%
barometer
mb
20260506123259 75 0.0 0.0 0.00 0.00 0.00 40 1005.4
20260506122244 75 0.0 0.0 0.00 0.00 0.00 40 1005.4
20260506121244 75 0.0 0.0 0.00 0.00 0.00 41 1003.5
20260506120244 73 0.0 0.0 0.00 0.00 0.00 43 1007.1
20260506115244 74 0.0 0.0 0.00 0.00 0.00 42 1008.0
20260506114244 77 0.0 0.0 0.00 0.00 0.00 40 1003.6
20260506113247 74 0.0 0.0 0.00 0.00 0.00 43 1005.6
20260506112247 74 0.0 0.0 0.00 0.00 0.00 43 1005.9
20260506111300 74 0.0 0.0 0.00 0.00 0.00 45 1005.5
20260506110244 74 0.0 0.0 0.00 0.00 0.00 47 1005.0
20260506105244 72 0.0 0.0 0.00 0.00 0.00 48 1004.5
20260506104259 71 0.0 0.0 0.00 0.00 0.00 48 1007.5
20260506103244 72 0.0 0.0 0.00 0.00 0.00 46 1006.2
20260506102244 72 0.0 0.0 0.00 0.00 0.00 47 1005.7
20260506101246 72 0.0 0.0 0.00 0.00 0.00 47 1005.7
20260506100244 72 0.0 0.0 0.00 0.00 0.00 47 1006.7
20260506095243 73 0.0 0.0 0.00 0.00 0.00 46 1006.1
20260506094247 74 0.0 0.0 0.00 0.00 0.00 44 1005.3
20260506093244 73 0.0 0.0 0.00 0.00 0.00 45 1004.7
20260506092244 72 0.0 0.0 0.00 0.00 0.00 46 1005.5
20260506091243 72 0.0 0.0 0.00 0.00 0.00 48 1004.1
20260506090243 71 0.0 0.0 0.00 0.00 0.00 49 1004.9
20260506085247 70 0.0 0.0 0.00 0.00 0.00 51 1005.9
20260506084243 70 0.0 0.0 0.00 0.00 0.00 50 1005.2
20260506083259 70 0.0 0.0 0.00 0.00 0.00 51 1005.4
20260506082244 69 0.0 0.0 0.00 0.00 0.00 51 1005.5
20260506081244 68 0.0 0.0 0.00 0.00 0.00 52 1005.9
20260506080244 69 0.0 0.0 0.00 0.00 0.00 52 1003.7
20260506073244 64 0.0 0.0 0.00 0.00 0.00 59 1005.6
20260506072244 64 0.0 0.0 0.00 0.00 0.00 61 1005.9
20260506071243 65 0.0 0.0 0.00 0.00 0.00 59 1004.8
20260506070244 64 0.0 0.0 0.00 0.00 0.00 60 1005.5
20260506062244 62 0.0 0.0 0.00 0.00 0.00 63 1003.9
20260506061243 61 0.0 0.0 0.00 0.00 0.00 67 1004.1
20260506060247 60 0.0 0.0 0.00 0.00 0.00 67 1005.1
20260506051244 57 0.0 0.0 0.00 0.00 0.00 73 1004.5
20260506050244 57 0.0 0.0 0.00 0.00 0.00 77 1004.9
20260506044259 54 0.0 0.0 0.00 0.00 0.00 85 1004.9
20260506043247 53 0.0 0.0 0.00 0.00 0.00 83 1004.9
20260506042243 52 0.0 0.0 0.00 0.00 0.00 85 1005.1
20260506041243 52 0.0 0.0 0.00 0.00 0.00 86 1005.0
20260506040247 51 0.0 0.0 0.00 0.00 0.00 89 1005.1
20260506035244 50 0.0 0.0 0.00 0.00 0.00 93 1005.5
20260506034244 49 0.0 0.0 0.00 0.00 0.00 94 1005.9
20260506033244 49 0.0 0.0 0.00 0.00 0.00 94 1006.3
20260506032244 50 0.0 0.0 0.00 0.00 0.00 94 1006.1
20260506031247 50 0.0 0.0 0.00 0.00 0.00 95 1006.2
20260506030244 50 0.0 0.0 0.00 0.00 0.00 96 1006.3
20260506025243 50 0.0 0.0 0.00 0.00 0.00 96 1006.6
20260506024244 51 0.0 0.0 0.00 0.00 0.00 97 1006.1
20260506023243 51 0.0 0.0 0.00 0.00 0.00 98 1006.1
20260506022244 51 0.0 0.0 0.00 0.00 0.00 99 1006.1
20260506021244 51 0.0 0.0 0.00 0.00 0.00 98 1006.2
20260506020245 51 0.0 0.0 0.00 0.00 0.00 97 1006.5
20260506015243 52 0.0 0.0 0.00 0.00 0.00 98 1006.5
20260506014259 52 0.0 0.0 0.00 0.00 0.00 98 1006.3
20260506013302 52 0.0 0.0 0.00 0.00 0.00 97 1006.7
20260506012243 53 0.0 0.0 0.00 0.00 0.00 97 1006.4
20260506011244 53 0.0 0.0 0.00 0.00 0.00 97 1006.4
20260506010244 53 0.0 0.0 0.00 0.00 0.00 96 1006.5
20260506005247 53 0.0 0.0 0.00 0.00 0.00 96 1006.5
20260506004331 54 0.0 0.0 0.00 0.00 0.00 94 1006.6
20260506003244 54 0.0 0.0 0.00 0.00 0.00 95 1006.4
20260506002244 54 0.0 0.0 0.00 0.00 0.00 94 1006.6
20260506001259 54 0.0 0.0 0.00 0.00 0.00 94 1006.3
20260506000243 54 0.0 0.0 0.00 0.00 0.00 94 1006.4
20260505235243 55 0.0 0.0 0.00 0.00 0.00 93 1006.5
20260505234247 55 0.0 0.0 0.00 0.00 0.00 93 1006.4
20260505233314 55 0.0 0.0 0.00 0.00 0.00 92 1006.5
20260505232244 55 0.0 0.0 0.00 0.00 0.00 89 1006.9
20260505231300 55 0.0 0.0 0.00 0.00 0.00 89 1007.1
20260505230243 55 0.0 0.0 0.00 0.00 0.00 88 1007.3
20260505225244 56 0.0 0.0 0.00 0.00 0.00 87 1007.1
20260505224244 56 0.0 0.0 0.00 0.00 0.00 87 1007.2
20260505223247 57 0.0 0.0 0.00 0.00 0.00 86 1007.1
20260505222244 57 0.0 0.0 0.00 0.00 0.00 85 1007.2
20260505221243 57 0.0 0.0 0.00 0.00 0.00 84 1006.9
20260505220259 58 0.0 0.0 0.00 0.00 0.00 84 1006.9
20260505215243 58 0.0 0.0 0.00 0.00 0.00 83 1007.3
20260505214244 58 0.0 0.0 0.00 0.00 0.00 82 1007.0
20260505213244 59 0.0 0.0 0.00 0.00 0.00 82 1006.8
20260505212247 59 0.0 0.0 0.00 0.00 0.00 82 1007.2
20260505211244 59 0.0 0.0 0.00 0.00 0.00 80 1007.1
20260505210243 60 0.0 0.0 0.00 0.00 0.00 80 1006.9
20260505205243 60 0.0 0.0 0.00 0.00 0.00 78 1007.0
20260505204243 60 0.0 0.0 0.00 0.00 0.00 77 1007.4
20260505203244 61 0.0 0.0 0.00 0.00 0.00 75 1006.8
20260505202244 62 0.0 0.0 0.00 0.00 0.00 74 1007.2
20260505201259 62 0.0 0.0 0.00 0.00 0.00 72 1007.1
20260505200243 63 0.0 0.0 0.00 0.00 0.00 71 1006.9
20260505195244 64 0.0 0.0 0.00 0.00 0.00 70 1006.7
20260505194315 64 0.0 0.0 0.00 0.00 0.00 69 1006.8
20260505193244 65 0.0 0.0 0.00 0.00 0.00 67 1006.7
20260505192259 65 0.0 0.0 0.00 0.00 0.00 66 1006.5
20260505191244 65 0.0 0.0 0.00 0.00 0.00 65 1006.5
20260505190247 66 0.0 0.0 0.00 0.00 0.00 63 1006.2
20260505185259 66 0.0 0.0 0.00 0.00 0.00 59 1006.0
20260505184244 65 0.0 0.0 0.00 0.00 0.00 53 1005.9
20260505183244 65 0.0 0.0 0.00 0.00 0.00 48 1007.1
20260505182314 67 0.0 0.0 0.00 0.00 0.00 48 1006.9
20260505181243 68 0.0 0.0 0.00 0.00 0.00 44 1006.7
20260505180314 69 0.0 0.0 0.00 0.00 0.00 41 1006.2
20260505175243 70 0.0 0.0 0.00 0.00 0.00 41 1006.3
20260505174244 72 0.0 0.0 0.00 0.00 0.00 39 1006.5
20260505173247 73 0.0 0.0 0.00 0.00 0.00 36 1007.0
20260505172243 75 0.0 0.0 0.00 0.00 0.00 32 1006.3
20260505171243 77 0.0 0.0 0.00 0.00 0.00 28 1005.8
20260505170316 78 0.0 0.0 0.00 0.00 0.00 27 1005.5
20260505165247 79 0.0 0.0 0.00 0.00 0.00 25 1004.7
20260505164244 78 0.0 0.0 0.00 0.00 0.00 25 1005.8
20260505163244 79 0.0 0.0 0.00 0.00 0.00 23 1005.4
20260505162243 80 0.0 0.0 0.00 0.00 0.00 23 1006.2
20260505161244 81 0.0 0.0 0.00 0.00 0.00 22 1005.7
20260505160244 82 0.0 0.0 0.00 0.00 0.00 21 1004.9
20260505153244 81 0.0 0.0 0.00 0.00 0.00 19 1006.9
20260505152259 83 0.0 0.0 0.00 0.00 0.00 19 1003.8
20260505151259 82 0.0 0.0 0.00 0.00 0.00 19 1005.0
20260505150318 81 0.0 0.0 0.00 0.00 0.00 19 1005.1
20260505140243 84 0.0 0.0 0.00 0.00 0.00 19 1003.9
20260505130300 84 0.0 0.0 0.00 0.00 0.00 19 1006.0
20260505124243 84 0.0 0.0 0.00 0.00 0.00 19 1006.1